Weather History for Defiance, OH

Change the Weather History Date:

Monday, June 9, 2014

  Actual Average Record
Temperature  
Mean Temperature 66 °F -  
Max Temperature 79 °F 79 °F 92 °F (1952)
Min Temperature 55 °F 55 °F 40 °F (1949)
Cooling Degree Days 2    
Growing Degree Days 16 (Base 50)    
Moisture  
Dew Point 55 °F    
Average Humidity 70    
Maximum Humidity 90    
Minimum Humidity 46    
Precipitation  
Precipitation 0.00 in - - ()
Sea Level Pressure  
Sea Level Pressure 29.98 in    
Wind  
Wind Speed 2 mph (ENE)    
Max Wind Speed 7 mph    
Max Gust Speed -    
Visibility 9 miles    
Events      
Averages and records for this station are not official NWS values.
T = Trace of Precipitation, MM = Missing Value Source: NWS Daily Summary

Daily Weather History Graph

Daily Weather History Graph

Search for Another Location

Airport:

Trip Planner

Search our weather history database for the weather conditions in past years. The results will help you decide how hot, cold, wet, or windy it might be!

Date:

Astronomy

Jun. 09, 2014 Rise Set
Actual Time 6:04 AM EDT 9:09 PM EDT
Civil Twilight 5:30 AM EDT 9:43 PM EDT
Nautical Twilight 4:47 AM EDT 10:26 PM EDT
Astronomical Twilight 3:56 AM EDT 11:17 PM EDT
Moon 5:28 PM EDT (6/9) 3:33 AM EDT (6/9)
Length of Visible Light 16h 12m
Length of Day
15h 05m
Waxing Gibbous, 85% of the Moon is Illuminated
Jun 9
Waxing Gibbous
Jun 13
Full
Jun 19
Last Quarter
Jun 27
New
Jul 5
First Quarter

Hourly Weather History & Observations

Time (EDT) Temp. Dew Point Humidity Pressure Visibility Wind Dir Wind Speed Gust Speed Precip Events Conditions
12:53 AM 60.1 °F 55.0 °F 83% 29.99 in 10.0 mi Calm Calm - N/A   Clear
1:53 AM 59.0 °F 55.0 °F 87% 30.00 in 9.0 mi Calm Calm - N/A   Clear
2:53 AM 57.0 °F 54.0 °F 89% 30.01 in 8.0 mi Calm Calm - N/A   Clear
3:53 AM 59.0 °F 54.0 °F 83% 29.99 in 10.0 mi NE 3.5 mph - N/A   Clear
4:53 AM 57.9 °F 54.0 °F 87% 29.99 in 8.0 mi NNE 3.5 mph - N/A   Clear
5:53 AM 57.0 °F 53.1 °F 87% 30.00 in 6.0 mi Calm Calm - N/A   Clear
6:30 AM 55.9 °F 53.1 °F 90% 30.00 in 2.5 mi Calm Calm - N/A   Clear
6:39 AM 57.0 °F 54.0 °F 89% 30.01 in 3.0 mi Calm Calm - N/A   Clear
6:53 AM 57.0 °F 53.1 °F 87% 30.01 in 3.0 mi North 3.5 mph - N/A   Clear
7:53 AM 62.1 °F 55.0 °F 78% 30.01 in 10.0 mi NNE 5.8 mph - N/A   Clear
8:53 AM 64.0 °F 55.9 °F 75% 30.03 in 10.0 mi NNE 5.8 mph - N/A   Clear
9:53 AM 66.0 °F 57.0 °F 73% 30.03 in 10.0 mi NE 5.8 mph - N/A   Clear
11:53 AM 71.1 °F 57.0 °F 61% 30.00 in 10.0 mi ESE 3.5 mph - N/A   Clear
12:53 PM 73.0 °F 55.9 °F 55% 30.01 in 10.0 mi ESE 6.9 mph - N/A   Clear
2:53 PM 75.9 °F 55.9 °F 50% 29.98 in 10.0 mi ESE 4.6 mph - N/A   Clear
3:53 PM 77.0 °F 55.9 °F 48% 29.95 in 10.0 mi Variable 3.5 mph - N/A   Partly Cloudy
4:53 PM 75.9 °F 55.9 °F 50% 29.95 in 10.0 mi East 4.6 mph - N/A   Scattered Clouds
5:53 PM 77.0 °F 55.9 °F 48% 29.95 in 10.0 mi Calm Calm - N/A   Partly Cloudy
6:53 PM 78.1 °F 55.9 °F 46% 29.93 in 10.0 mi Calm Calm - N/A   Clear
7:53 PM 75.9 °F 55.9 °F 50% 29.93 in 10.0 mi East 3.5 mph - N/A   Mostly Cloudy
8:53 PM 73.0 °F 55.9 °F 55% 29.93 in 10.0 mi ESE 3.5 mph - N/A   Clear
9:53 PM 68.0 °F 55.9 °F 65% 29.94 in 10.0 mi ESE 3.5 mph - N/A   Clear
10:53 PM 66.0 °F 55.0 °F 68% 29.94 in 10.0 mi Calm Calm - N/A   Clear
11:53 PM 62.1 °F 55.0 °F 78% 29.94 in 10.0 mi Calm Calm - N/A   Clear